Weather History for CYHM - November, 2013

Change the Weather History Date:

Friday, November 22, 2013

  Actual Average Record
Temperature  
Mean Temperature 38 °F -  
Max Temperature 45 °F 36 °F 64 °F (1999)
Min Temperature 30 °F 23 °F 12 °F (2014)
Degree Days  
Heating Degree Days 28    
Moisture  
Dew Point 39 °F    
Average Humidity 92    
Maximum Humidity 100    
Minimum Humidity 68    
Precipitation  
Precipitation 0.16 in 0.11 in - ()
Sea Level Pressure  
Sea Level Pressure 30.14 in    
Wind  
Wind Speed 6 mph ()    
Max Wind Speed 23 mph    
Max Gust Speed 32 mph    
Visibility 5.0 miles    
Events Fog , Rain    
Averages and records for this station are not official NWS values.
T = Trace of Precipitation, MM = Missing Value Source: Averaged Metar Reports

Daily Weather History Graph

Daily Weather History Graph

Search for Another Location

Airport or City:

Trip Planner

Search our weather history database for the weather conditions in past years. The results will help you decide how hot, cold, wet, or windy it might be!

Date:

Astronomy

Nov. 22, 2013 Rise Set
Actual Time 7:21 AM EST 4:49 PM EST
Civil Twilight 6:50 AM EST 5:21 PM EST
Nautical Twilight 6:15 AM EST 5:56 PM EST
Astronomical Twilight 5:41 AM EST 6:30 PM EST
Moon 9:22 PM EST (11/22) 11:02 AM EST (11/22)
Length of Visible Light 10h 30m
Length of Day
9h 28m
Waning Gibbous, 78% of the Moon is Illuminated
Nov 22
Waning Gibbous
Nov 25
Last Quarter
Dec 2
New
Dec 9
First Quarter
Dec 17
Full

Hourly Weather History & Observations

Time (EST) Temp. Windchill Dew Point Humidity Pressure Visibility Wind Dir Wind Speed Gust Speed Precip Events Conditions
12:00 AM 41.0 °F 38.0 °F 39.2 °F 93% 30.22 in 1.5 mi SSW 4.6 mph - N/A Rain Light Rain Showers
12:31 AM 41.0 °F 39.0 °F 39.2 °F 93% 30.21 in 1.2 mi South 3.5 mph - N/A Rain Light Rain Showers
1:00 AM 41 °F - 40 °F 96% 30.20 in 1 mi South 3.5 mph - - Rain Light Rain Showers
1:00 AM 41.0 °F 39.0 °F 41.0 °F 100% 30.20 in 1.2 mi South 3.5 mph - N/A Rain Light Rain Showers
2:00 AM 41.0 °F 38.0 °F 41.0 °F 100% 30.19 in 1.2 mi South 4.6 mph - N/A Rain Light Rain Showers
2:18 AM 41.0 °F 39.0 °F 41.0 °F 100% 30.18 in 1.2 mi South 3.5 mph - N/A Rain Light Rain
3:00 AM 41.0 °F 39.0 °F 41.0 °F 100% 30.17 in 1.2 mi South 3.5 mph - N/A Rain Light Rain
3:22 AM 41.0 °F 38.0 °F 41.0 °F 100% 30.17 in 1.2 mi SSW 4.6 mph - N/A Rain Light Rain
4:00 AM 42.8 °F 40.1 °F 41.0 °F 93% 30.16 in 1.5 mi SSW 4.6 mph - N/A Rain Light Rain
5:00 AM 42.8 °F 39.3 °F 41.0 °F 93% 30.13 in 1.5 mi SSW 5.8 mph - N/A Rain Light Rain
5:17 AM 42.8 °F 40.1 °F 41.0 °F 93% 30.14 in 1.5 mi SW 4.6 mph - N/A Rain Light Rain
6:00 AM 42.8 °F 39.3 °F 41.0 °F 93% 30.13 in 1.2 mi SW 5.8 mph - N/A Rain Light Rain
6:25 AM 42.8 °F 38.6 °F 41.0 °F 93% 30.13 in 2.5 mi SW 6.9 mph - N/A   Overcast
7:00 AM 43 °F - 42 °F 95% 30.13 in 2 mi SW 8.1 mph - -   Mist
7:00 AM 42.8 °F 38.0 °F 42.8 °F 100% 30.13 in 1.8 mi WSW 8.1 mph - N/A   Overcast
7:22 AM 42.8 °F 40.1 °F 42.8 °F 100% 30.12 in 1.0 mi WSW 4.6 mph - N/A   Overcast
7:36 AM 42.8 °F 38.6 °F 42.8 °F 100% 30.13 in 1.5 mi WSW 6.9 mph - N/A   Overcast
8:00 AM 42.8 °F 39.3 °F 42.8 °F 100% 30.12 in 0.1 mi SW 5.8 mph - N/A Fog Fog
9:00 AM 42.8 °F 38.6 °F 42.8 °F 100% 30.12 in 0.1 mi West 6.9 mph - N/A Fog Fog
9:06 AM 42.8 °F 39.3 °F 42.8 °F 100% 30.12 in 0.4 mi West 5.8 mph - N/A Fog Fog
9:11 AM 42.8 °F 38.6 °F 42.8 °F 100% 30.12 in 0.6 mi West 6.9 mph - N/A   Overcast
9:19 AM 42.8 °F 38.6 °F 42.8 °F 100% 30.12 in 1.5 mi West 6.9 mph - N/A   Overcast
10:00 AM 44.6 °F 40.2 °F 42.8 °F 93% 30.12 in 2.5 mi WSW 8.1 mph - N/A   Overcast
11:00 AM 44.6 °F 40.2 °F 44.6 °F 100% 30.10 in 4.0 mi West 8.1 mph - N/A   Overcast
12:00 PM 44.6 °F 39.7 °F 42.8 °F 93% 30.07 in 6.0 mi WSW 9.2 mph - N/A Rain Light Rain Showers
1:00 PM 46 °F - 44 °F 89% 30.06 in 5 mi WSW 9.2 mph - - Rain Light Rain Showers
1:00 PM 46.4 °F 42.4 °F 42.8 °F 87% 30.06 in 5.0 mi WSW 8.1 mph - N/A Rain Light Rain Showers
2:00 PM 44.6 °F 39.2 °F 44.6 °F 100% 30.04 in 1.8 mi WSW 10.4 mph - N/A Rain Light Rain Showers
2:11 PM 44.6 °F 39.7 °F 44.6 °F 100% 30.04 in 3.0 mi West 9.2 mph - N/A Rain Light Rain Showers
3:00 PM 44.6 °F 38.8 °F 42.8 °F 93% 30.04 in 4.0 mi West 11.5 mph - N/A Rain Light Rain Showers
3:26 PM 42.8 °F 35.1 °F 41.0 °F 93% 30.06 in 8.0 mi West 16.1 mph - N/A Rain Light Rain Showers
4:00 PM 41.0 °F 32.5 °F 37.4 °F 87% 30.08 in 15.0 mi WNW 17.3 mph 24.2 mph N/A Rain Light Rain Showers
5:00 PM 39.2 °F 30.8 °F 33.8 °F 81% 30.11 in 15.0 mi WNW 15.0 mph 27.6 mph N/A   Overcast
6:00 PM 37.4 °F 29.8 °F 32.0 °F 81% 30.13 in 15.0 mi WNW 11.5 mph 23.0 mph N/A   Overcast
7:00 PM 35 °F - 28 °F 68% 30.16 in 15 mi WNW 17.3 mph - -   Partly Cloudy
7:00 PM 35.6 °F 24.0 °F 28.4 °F 75% 30.16 in 15.0 mi WNW 23.0 mph 32.2 mph N/A   Mostly Cloudy
8:00 PM 33.8 °F 24.3 °F 26.6 °F 75% 30.20 in 15.0 mi WNW 13.8 mph 24.2 mph N/A   Partly Cloudy
9:00 PM 32.0 °F 22.1 °F 24.8 °F 75% 30.23 in 15.0 mi NW 13.8 mph - N/A   Mostly Cloudy
10:00 PM 30.2 °F 20.8 °F 24.8 °F 80% 30.25 in 15.0 mi NW 11.5 mph - N/A   Mostly Cloudy
11:00 PM 30.2 °F 21.3 °F 23.0 °F 75% 30.25 in 15.0 mi WNW 10.4 mph - N/A   Mostly Cloudy